Find Globalstar M048

NORAD ID: 25872 Int'l Des: 1999-041 Owner: GLOBT Country: US Constellation: globalstar operational
LEOCIRCULAR

Live-Position

3D-Globus wird geladen...

Über Globalstar M048

Beschreibung wird geladen...

Nächste Überflüge

Passes for default location (London). Set your location on the main map for personalized predictions.

Höhenverlauf

Loading altitude history...

Zweizeiliger Elementsatz

1 25872U 99041A 26104.37506948 -.00000054 00000-0 44087-3 0 9998
2 25872 51.9402 340.9896 0013169 349.9360 180.9799 11.33863196159144
Epoch: 14. Apr. 2026 • Age: 14 hours

Aktueller Status

Höhe 2002.4 km
Geschwindigkeit 6.90 km/s
Subsatellitenpunkt 44.22°N, 85.41°W
Startdatum 25. Juli 1999
Alter 26.7 years
Typ communications

Technische Details

Klassifizierung Payload
Masse 450.00 kg
Trockenmasse 380.00 kg
Gesamtmasse 450.00 kg
Länge 1.50 m
Durchmesser 0.60 m
Spannweite 12.00 m
Form Box + 2 Pan
Hersteller LOR
Bus-Typ LS-400
Phasenstatus In Orbit
Besitzer/Staat GLOBT/US

Most Searched